This is the latest recevied weather packets stored in our database for station/object KC3AWA. If no packets are shown the sender has not sent any weather packets the latest 1 day(s).
| Time | Temp. | Humidity | Pressure | Rain* | Wind** | Luminosity | Snow |
|---|---|---|---|---|---|---|---|
| 1778053028 | 10° C | 98% | 1007 hPa | 3.05 mm | - | 0 W/m² | - |
| 1778052726 | 10° C | 98% | 1007.1 hPa | 3.05 mm | - | 0 W/m² | - |
| 1778052422 | 10° C | 98% | 1007.1 hPa | 1.27 mm | - | 0 W/m² | - |
| 1778052120 | 10° C | 98% | 1007.2 hPa | 1.78 mm | - | 0 W/m² | - |
| 1778051817 | 10° C | 98% | 1007.2 hPa | 1.78 mm | - | 0 W/m² | - |
| 1778051515 | 10° C | 98% | 1007.2 hPa | 1.27 mm | - | 0 W/m² | - |
| 1778050607 | 10.56° C | 98% | 1007.3 hPa | 3.05 mm | - | 0 W/m² | - |
| 1778050303 | 10.56° C | 98% | 1007.9 hPa | 3.05 mm | - | 0 W/m² | - |
| 1778050000 | 10.56° C | 98% | 1007.8 hPa | 1.78 mm | - | 0 W/m² | - |
| 1778049394 | 10.56° C | 98% | 1007.9 hPa | 1.27 mm | - | 0 W/m² | - |
| 1778049090 | 10.56° C | 98% | 1007.9 hPa | 0 mm | - | 0 W/m² | - |
| 1778048486 | 10.56° C | 98% | 1008 hPa | 1.78 mm | - | 0 W/m² | - |
| 1778047880 | 10.56° C | 98% | 1008.1 hPa | 1.78 mm | - | 0 W/m² | - |
| 1778047578 | 10.56° C | 98% | 1008.2 hPa | 1.78 mm | - | 0 W/m² | - |
| 1778046972 | 10.56° C | 98% | 1008.4 hPa | 1.27 mm | - | 0 W/m² | - |
| 1778046061 | 10.56° C | 98% | 1008.3 hPa | 1.78 mm | - | 0 W/m² | - |
| 1778044853 | 10.56° C | 98% | 1008.9 hPa | 3.05 mm | - | 0 W/m² | - |
| 1778044246 | 10.56° C | 98% | 1009 hPa | 1.78 mm | - | 0 W/m² | - |
| 1778043944 | 10.56° C | 98% | 1009.1 hPa | 1.78 mm | - | 0 W/m² | - |
| 1778043338 | 10.56° C | 98% | 1009.3 hPa | 1.27 mm | - | 0 W/m² | - |
| 1778042429 | 10.56° C | 98% | 1009.2 hPa | 1.78 mm | - | 0 W/m² | - |
| 1778042126 | 10.56° C | 98% | 1009 hPa | 1.78 mm | - | 0 W/m² | - |
| 1778041825 | 10.56° C | 98% | 1009.3 hPa | 1.27 mm | - | 0 W/m² | - |
| 1778041221 | 10.56° C | 98% | 1008.8 hPa | 6.6 mm | - | 0 W/m² | - |
| 1778040616 | 10.56° C | 98% | 1009 hPa | 3.05 mm | - | 0 W/m² | - |
* Rain latest hour (hover to see other rain measurements)
** Current wind speed in m/s (hover to see current wind gust speed)